Location: Ferchesar
(52.6477°N, 12.4298°E)
Time: 21:38:52
(UTC+01:00)

TIGRISAT - Pass Details

Date: 25 October 2021
Orbit: 603 x 689 km, 97.7° (Epoch: 30 November)

Event Time Altitude Azimuth Distance (km) Brightness Sun altitude
Rises 18:42:18 0° 31° (NNE) 2,970 ? -8.0°
Enters shadow 18:44:05 - 44° (NE) 2,480 ? -8.2°
Exits shadow 18:51:17 - 125° (SE) 2,553 ? -9.3°
Sets 18:52:28 0° 134° (SE) 2,888 ? -9.5°
